TimePST,TemperatureF,Dew PointF,Humidity,Sea Level PressureIn,VisibilityMPH,Wind Direction,Wind SpeedMPH,Gust SpeedMPH,PrecipitationIn,Events,Conditions,WindDirDegrees,DateUTC
12:48 AM,42.8,42.8,100,30.36,10.0,Calm,Calm,-,N/A,,Overcast,0,2013-02-02 08:48:00
12:58 AM,43.3,42.1,95,30.38,10.0,Calm,Calm,-,N/A,,Overcast,0,2013-02-02 08:58:00
1:03 AM,42.8,42.8,100,30.36,10.0,NW,1.2,-,N/A,,Overcast,310,2013-02-02 09:03:00
1:38 AM,42.8,42.8,100,30.36,10.0,Calm,Calm,-,N/A,,Overcast,0,2013-02-02 09:38:00
1:43 AM,42.8,42.8,100,30.36,9.0,WNW,1.2,-,N/A,,Overcast,290,2013-02-02 09:43:00
1:58 AM,43.5,42.1,95,30.38,9.0,Calm,Calm,-,N/A,,Overcast,0,2013-02-02 09:58:00
2:12 AM,42.8,42.8,100,30.36,8.0,Calm,Calm,-,N/A,,Overcast,0,2013-02-02 10:12:00
2:52 AM,42.8,41.0,93,30.36,6.0,NNW,1.2,-,N/A,,Overcast,330,2013-02-02 10:52:00
2:58 AM,42.8,41.0,93,30.38,5.0,Calm,Calm,-,N/A,,Overcast,0,2013-02-02 10:58:00
3:03 AM,42.8,41.0,93,30.35,5.0,WNW,2.3,-,N/A,,Overcast,300,2013-02-02 11:03:00
3:08 AM,42.8,41.0,93,30.35,5.0,NNW,1.2,-,N/A,,Overcast,330,2013-02-02 11:08:00
3:18 AM,42.8,41.0,93,30.35,4.0,NNW,1.2,-,N/A,,Overcast,330,2013-02-02 11:18:00
3:58 AM,41.4,41.2,99,30.36,3.0,NW,1.2,-,N/A,,Overcast,320,2013-02-02 11:58:00
4:13 AM,41.0,41.0,100,30.34,2.5,WNW,2.3,-,N/A,,Overcast,290,2013-02-02 12:13:00
4:18 AM,41.0,41.0,100,30.34,1.8,WNW,1.2,-,N/A,,Overcast,290,2013-02-02 12:18:00
4:23 AM,41.0,41.0,100,30.34,1.2,Calm,Calm,-,N/A,,Overcast,0,2013-02-02 12:23:00
4:28 AM,41.0,41.0,100,30.34,1.5,Calm,Calm,-,N/A,,Overcast,0,2013-02-02 12:28:00
4:38 AM,41.0,41.0,100,30.33,1.8,Calm,Calm,-,N/A,,Overcast,0,2013-02-02 12:38:00
4:48 AM,41.0,41.0,100,30.33,1.5,Calm,Calm,-,N/A,,Overcast,0,2013-02-02 12:48:00
4:53 AM,41.0,41.0,100,30.33,1.2,Calm,Calm,-,N/A,,Overcast,0,2013-02-02 12:53:00
4:58 AM,41.0,40.8,99,30.35,1.2,WNW,2.3,-,N/A,,Overcast,290,2013-02-02 12:58:00
5:13 AM,41.0,41.0,100,30.33,2.0,Calm,Calm,-,N/A,,Overcast,0,2013-02-02 13:13:00
5:18 AM,41.0,41.0,100,30.33,2.5,WNW,2.3,-,N/A,,Overcast,290,2013-02-02 13:18:00
5:28 AM,41.0,41.0,100,30.32,3.0,Calm,Calm,-,N/A,,Overcast,0,2013-02-02 13:28:00
5:33 AM,41.0,41.0,100,30.32,2.5,WNW,2.3,-,N/A,,Overcast,290,2013-02-02 13:33:00
5:43 AM,41.0,41.0,100,30.32,3.0,Calm,Calm,-,N/A,,Overcast,0,2013-02-02 13:43:00
5:53 AM,41.0,41.0,100,30.32,2.5,NW,1.2,-,N/A,,Overcast,320,2013-02-02 13:53:00
5:58 AM,40.6,40.3,99,30.34,1.8,WNW,2.3,-,N/A,,Overcast,300,2013-02-02 13:58:00
6:03 AM,41.0,41.0,100,30.31,2.0,WNW,2.3,-,N/A,,Overcast,300,2013-02-02 14:03:00
6:08 AM,41.0,41.0,100,30.31,3.0,Calm,Calm,-,N/A,,Overcast,0,2013-02-02 14:08:00
6:48 AM,41.0,39.2,93,30.31,3.0,WNW,2.3,-,N/A,,Overcast,290,2013-02-02 14:48:00
6:53 AM,39.2,39.2,100,30.31,2.5,WNW,2.3,-,N/A,,Overcast,300,2013-02-02 14:53:00
6:58 AM,40.1,39.7,99,30.33,2.0,NW,1.2,-,N/A,,Overcast,320,2013-02-02 14:58:00
7:13 AM,39.2,39.2,100,30.31,1.8,WNW,1.2,-,N/A,,Overcast,290,2013-02-02 15:13:00
7:18 AM,39.2,39.2,100,30.31,1.5,WNW,2.3,-,N/A,,Overcast,290,2013-02-02 15:18:00
7:28 AM,39.2,39.2,100,30.31,1.2,WNW,2.3,-,N/A,,Overcast,290,2013-02-02 15:28:00
7:33 AM,39.2,39.2,100,30.31,1.0,WNW,2.3,-,N/A,,Overcast,290,2013-02-02 15:33:00
7:43 AM,39.2,39.2,100,30.31,0.8,NW,1.2,-,N/A,,Overcast,320,2013-02-02 15:43:00
7:48 AM,39.2,39.2,100,30.31,1.0,NNW,1.2,-,N/A,,Overcast,340,2013-02-02 15:48:00
7:53 AM,39.2,39.2,100,30.32,2.0,WNW,2.3,-,N/A,,Overcast,290,2013-02-02 15:53:00
7:58 AM,39.6,39.4,99,30.34,3.0,WNW,2.3,-,N/A,,Overcast,290,2013-02-02 15:58:00
8:03 AM,39.2,39.2,100,30.32,2.5,WNW,2.3,-,N/A,,Overcast,290,2013-02-02 16:03:00
8:08 AM,39.2,39.2,100,30.32,2.0,WNW,2.3,-,N/A,,Overcast,290,2013-02-02 16:08:00
8:13 AM,39.2,39.2,100,30.32,2.5,WNW,1.2,-,N/A,,Overcast,290,2013-02-02 16:13:00
8:18 AM,39.2,39.2,100,30.32,3.0,Calm,Calm,-,N/A,,Overcast,0,2013-02-02 16:18:00
8:23 AM,39.2,39.2,100,30.32,2.5,NNW,1.2,-,N/A,,Overcast,330,2013-02-02 16:23:00
8:28 AM,39.2,39.2,100,30.32,2.0,WNW,2.3,-,N/A,,Overcast,290,2013-02-02 16:28:00
8:33 AM,39.2,39.2,100,30.32,1.8,North,1.2,-,N/A,,Overcast,350,2013-02-02 16:33:00
8:38 AM,39.2,39.2,100,30.32,2.0,Calm,Calm,-,N/A,,Overcast,0,2013-02-02 16:38:00
8:43 AM,39.2,39.2,100,30.32,2.5,Calm,Calm,-,N/A,,Overcast,0,2013-02-02 16:43:00
8:48 AM,39.2,39.2,100,30.32,2.0,NW,1.2,-,N/A,,Overcast,320,2013-02-02 16:48:00
8:53 AM,39.2,39.2,100,30.32,1.5,Calm,Calm,-,N/A,,Overcast,0,2013-02-02 16:53:00
8:58 AM,39.2,39.2,100,30.34,1.5,WNW,1.2,-,N/A,,Overcast,300,2013-02-02 16:58:00
9:03 AM,39.2,39.2,100,30.32,2.0,Calm,Calm,-,N/A,,Overcast,0,2013-02-02 17:03:00
9:08 AM,39.2,39.2,100,30.33,2.5,WNW,1.2,-,N/A,,Overcast,300,2013-02-02 17:08:00
9:13 AM,39.2,39.2,100,30.33,3.0,WNW,2.3,-,N/A,,Overcast,290,2013-02-02 17:13:00
9:43 AM,39.2,39.2,100,30.32,2.5,WNW,2.3,-,N/A,,Overcast,290,2013-02-02 17:43:00
9:48 AM,39.2,39.2,100,30.33,2.0,Calm,Calm,-,N/A,,Overcast,0,2013-02-02 17:48:00
9:53 AM,39.2,39.2,100,30.32,2.5,WNW,2.3,-,N/A,,Overcast,290,2013-02-02 17:53:00
9:58 AM,39.2,39.2,100,30.34,2.5,WNW,2.3,-,N/A,,Overcast,290,2013-02-02 17:58:00
10:03 AM,39.2,39.2,100,30.32,2.0,Calm,Calm,-,N/A,,Overcast,0,2013-02-02 18:03:00
10:08 AM,39.2,39.2,100,30.32,2.5,Calm,Calm,-,N/A,,Overcast,0,2013-02-02 18:08:00
10:13 AM,39.2,39.2,100,30.32,3.0,NW,1.2,-,N/A,,Overcast,320,2013-02-02 18:13:00
10:28 AM,39.2,39.2,100,30.32,2.5,Calm,Calm,-,N/A,,Overcast,0,2013-02-02 18:28:00
10:38 AM,39.2,39.2,100,30.32,3.0,Calm,Calm,-,N/A,,Overcast,0,2013-02-02 18:38:00
10:58 AM,39.9,39.7,99,30.34,5.0,NW,1.2,-,N/A,,Overcast,320,2013-02-02 18:58:00
11:28 AM,41.0,41.0,100,30.31,5.0,Calm,Calm,-,N/A,,Overcast,0,2013-02-02 19:28:00
11:58 AM,40.6,40.5,99,30.32,7.0,NNW,1.2,-,N/A,,Overcast,330,2013-02-02 19:58:00
12:03 PM,41.0,41.0,100,30.30,7.0,Calm,Calm,-,N/A,,Overcast,0,2013-02-02 20:03:00
12:43 PM,41.0,41.0,100,30.29,10.0,WNW,2.3,-,N/A,,Overcast,290,2013-02-02 20:43:00
12:58 PM,41.2,40.5,97,30.32,10.0,WNW,2.3,-,N/A,,Overcast,290,2013-02-02 20:58:00
1:33 PM,41.0,39.2,93,30.29,10.0,Calm,Calm,-,N/A,,Overcast,0,2013-02-02 21:33:00
1:58 PM,41.4,39.7,94,30.31,10.0,Calm,Calm,-,N/A,,Overcast,0,2013-02-02 21:58:00
2:43 PM,42.8,39.2,87,30.28,10.0,WNW,4.6,-,N/A,,Overcast,290,2013-02-02 22:43:00
2:48 PM,41.0,39.2,93,30.28,10.0,WNW,3.5,-,N/A,,Overcast,290,2013-02-02 22:48:00
2:58 PM,41.7,39.7,93,30.30,10.0,WNW,3.5,-,N/A,,Overcast,290,2013-02-02 22:58:00
3:58 PM,41.7,39.9,93,30.29,10.0,WNW,3.5,-,N/A,,Overcast,290,2013-02-02 23:58:00
4:58 PM,40.8,39.2,94,30.28,10.0,Calm,Calm,-,N/A,,Overcast,0,2013-02-03 00:58:00
5:40 PM,39.2,39.2,100,30.25,10.0,NW,1.2,-,N/A,,Overcast,320,2013-02-03 01:40:00
5:55 PM,39.2,39.2,100,30.25,10.0,WNW,2.3,-,N/A,,Overcast,290,2013-02-03 01:55:00
5:58 PM,39.4,38.8,98,30.27,10.0,WNW,3.5,-,N/A,,Overcast,290,2013-02-03 01:58:00
6:03 PM,39.2,39.2,100,30.25,7.0,WNW,3.5,-,N/A,,Overcast,290,2013-02-03 02:03:00
6:08 PM,39.2,39.2,100,30.24,5.0,WNW,3.5,-,N/A,,Overcast,290,2013-02-03 02:08:00
6:13 PM,39.2,39.2,100,30.24,2.5,WNW,3.5,-,N/A,,Overcast,290,2013-02-03 02:13:00
6:18 PM,39.2,37.4,93,30.24,1.5,WNW,2.3,-,N/A,,Overcast,290,2013-02-03 02:18:00
6:23 PM,37.4,37.4,100,30.24,1.8,NW,1.2,-,N/A,,Overcast,310,2013-02-03 02:23:00
6:28 PM,37.4,37.4,100,30.24,1.5,Calm,Calm,-,N/A,,Overcast,0,2013-02-03 02:28:00
6:33 PM,37.4,37.4,100,30.24,0.8,Calm,Calm,-,N/A,,Overcast,0,2013-02-03 02:33:00
6:38 PM,37.4,37.4,100,30.25,0.5,Calm,Calm,-,N/A,Fog,Fog,0,2013-02-03 02:38:00
6:43 PM,37.4,37.4,100,30.25,0.5,WNW,2.3,-,N/A,Fog,Fog,290,2013-02-03 02:43:00
6:48 PM,37.4,37.4,100,30.26,0.2,WNW,3.5,-,N/A,Fog,Fog,290,2013-02-03 02:48:00
6:58 PM,38.3,37.9,99,30.27,0.2,WNW,2.3,-,N/A,Fog,Fog,290,2013-02-03 02:58:00
7:03 PM,39.2,37.4,93,30.25,0.5,Calm,Calm,-,N/A,Fog,Fog,0,2013-02-03 03:03:00
7:13 PM,37.4,37.4,100,30.26,0.2,Calm,Calm,-,N/A,Fog,Fog,0,2013-02-03 03:13:00
7:18 PM,37.4,37.4,100,30.26,0.2,WNW,1.2,-,N/A,Fog,Fog,300,2013-02-03 03:18:00
7:58 PM,37.0,36.9,99,30.28,0.2,Calm,Calm,-,N/A,Fog,Fog,0,2013-02-03 03:58:00
8:08 PM,37.4,37.4,100,30.26,0.2,Calm,Calm,-,N/A,Fog,Fog,0,2013-02-03 04:08:00
8:13 PM,37.4,37.4,100,30.26,0.2,Calm,Calm,-,N/A,Fog,Fog,0,2013-02-03 04:13:00
8:58 PM,37.0,36.7,99,30.29,0.2,Calm,Calm,-,N/A,Fog,Fog,0,2013-02-03 04:58:00
9:18 PM,37.4,35.6,93,30.27,0.2,WNW,2.3,-,N/A,Fog,Fog,290,2013-02-03 05:18:00
9:53 PM,35.6,35.6,100,30.27,0.2,WNW,3.5,-,N/A,Fog,Fog,290,2013-02-03 05:53:00
9:58 PM,35.6,35.2,99,30.29,0.2,WNW,3.5,-,N/A,Fog,Fog,290,2013-02-03 05:58:00
10:23 PM,33.8,32.0,93,30.27,0.5,WNW,5.8,-,N/A,Fog,Fog,290,2013-02-03 06:23:00
10:28 PM,32.0,32.0,100,30.27,0.2,WNW,4.6,-,N/A,Fog,Fog,290,2013-02-03 06:28:00
10:43 PM,32.0,32.0,100,30.27,0.5,WNW,5.8,-,N/A,Fog,Fog,290,2013-02-03 06:43:00
10:48 PM,32.0,32.0,100,30.27,0.5,WNW,4.6,-,N/A,Fog,Fog,290,2013-02-03 06:48:00
10:58 PM,32.0,31.8,99,30.29,0.5,WNW,5.8,-,N/A,Fog,Light Freezing Fog,290,2013-02-03 06:58:00
11:03 PM,32.0,32.0,100,30.27,0.5,WNW,4.6,-,N/A,Fog,Light Freezing Fog,290,2013-02-03 07:03:00
11:13 PM,32.0,32.0,100,30.27,0.5,WNW,5.8,-,N/A,Fog,Light Freezing Fog,290,2013-02-03 07:13:00
11:18 PM,32.0,32.0,100,30.27,0.5,WNW,4.6,-,N/A,Fog,Light Freezing Fog,290,2013-02-03 07:18:00
11:23 PM,32.0,32.0,100,30.27,0.2,WNW,2.3,-,N/A,Fog,Light Freezing Fog,290,2013-02-03 07:23:00
11:38 PM,32.0,32.0,100,30.27,0.5,WNW,3.5,-,N/A,Fog,Light Freezing Fog,290,2013-02-03 07:38:00
11:43 PM,32.0,32.0,100,30.27,0.5,WNW,2.3,-,N/A,Fog,Light Freezing Drizzle,290,2013-02-03 07:43:00
11:53 PM,32.0,32.0,100,30.29,0.5,Calm,Calm,-,N/A,Fog,Light Freezing Drizzle,0,2013-02-03 07:53:00
11:58 PM,32.0,32.0,100,30.31,0.5,WNW,1.2,-,0.00,Fog,Light Freezing Drizzle,300,2013-02-03 07:58:00